CST,Max TemperatureF,Mean TemperatureF,Min TemperatureF,Max Dew PointF,MeanDew PointF,Min DewpointF,Max Humidity, Mean Humidity, Min Humidity, Max Sea Level PressureIn, Mean Sea Level PressureIn, Min Sea Level PressureIn, Max VisibilityMiles, Mean VisibilityMiles, Min VisibilityMiles, Max Wind SpeedMPH, Mean Wind SpeedMPH, Max Gust SpeedMPH,PrecipitationIn, CloudCover, Events, WindDirDegrees
2012-11-1,57,44,30,35,29,22,79,55,30,29.98,29.91,29.86,10,10,10,16,8,22,0.00,2,,269
2012-11-2,52,41,30,36,32,28,92,68,44,30.11,30.03,29.88,10,10,9,12,6,15,0.00,0,,15
2012-11-3,43,37,31,40,37,31,100,93,85,30.20,30.12,30.07,10,9,5,16,8,20,0.25,7,Rain-Thunderstorm,65
2012-11-4,48,38,28,39,33,27,100,83,65,30.25,30.21,30.19,10,10,7,12,5,13,0.00,3,,347
2012-11-5,43,37,30,36,33,30,100,84,67,30.19,30.14,30.09,10,9,6,9,4,12,0.00,7,,38
2012-11-6,45,40,34,43,38,32,96,81,65,30.09,29.96,29.89,10,5,2,9,4,14,0.14,8,Rain,192
2012-11-7,47,42,37,41,40,37,100,91,82,30.18,30.02,29.88,10,7,1,14,7,17,0.00,8,,338
2012-11-8,50,44,38,39,37,36,92,77,61,30.25,30.18,30.12,10,9,7,10,5,15,0.00,4,,186
2012-11-9,64,52,39,50,43,36,92,74,56,30.13,30.05,29.96,10,9,7,20,12,25,0.00,0,,167
2012-11-10,71,62,52,51,47,43,77,61,44,30.06,30.02,29.97,10,10,10,21,13,32,0.00,2,,175
2012-11-11,66,58,50,55,50,44,100,78,55,30.05,29.96,29.87,10,8,2,29,16,43,0.52,6,Rain,228
2012-11-12,50,40,30,40,29,23,100,75,50,30.42,30.22,30.02,10,9,4,24,13,31,0.28,4,Rain-Snow,277
2012-11-13,42,34,25,29,25,23,92,71,50,30.55,30.50,30.42,10,10,10,8,3,10,0.00,0,,272
2012-11-14,43,36,28,30,25,21,92,71,49,30.54,30.46,30.39,10,10,10,10,2,15,0.00,0,,117
2012-11-15,47,36,25,32,29,25,100,75,49,30.41,30.38,30.35,10,7,2,7,1,8,0.00,0,,306
2012-11-16,53,41,28,34,29,26,100,69,38,30.48,30.44,30.37,10,5,0,7,2,9,0.00,0,Fog,70
2012-11-17,55,43,30,36,31,27,92,69,45,30.56,30.48,30.43,10,8,3,10,3,14,0.00,0,,126
2012-11-18,58,45,31,33,31,29,96,66,36,30.43,30.38,30.33,10,9,7,12,3,13,0.00,0,,157
2012-11-19,57,48,38,41,37,32,85,70,54,30.32,30.24,30.14,10,10,10,10,6,13,0.00,3,,171
2012-11-20,60,53,45,48,45,40,93,78,62,30.17,30.12,30.07,10,9,6,9,3,10,0.00,7,,205
2012-11-21,62,50,37,50,45,38,100,82,64,30.27,30.22,30.17,6,2,0,8,3,12,0.00,0,Fog,247
2012-11-22,60,52,44,52,47,43,100,80,60,30.16,30.03,29.94,10,7,3,20,11,28,0.09,3,Rain-Thunderstorm,192
2012-11-23,54,38,22,46,27,17,92,70,48,30.30,30.18,30.00,10,10,10,33,18,41,T,1,,301
2012-11-24,31,25,18,25,20,16,92,81,69,30.34,30.24,30.08,10,10,8,14,6,17,0.00,2,,253
2012-11-25,47,38,29,31,27,23,78,64,49,30.07,29.98,29.92,10,10,10,18,8,25,0.00,0,,241
2012-11-26,44,35,26,30,26,20,92,71,50,30.35,30.22,30.08,10,10,7,20,9,24,T,4,,10
2012-11-27,38,28,18,25,22,18,96,74,52,30.44,30.37,30.34,10,9,8,9,5,12,0.00,0,,320
2012-11-28,45,36,27,30,25,22,85,67,49,30.45,30.38,30.33,10,9,7,8,5,12,0.00,0,,213
2012-11-29,49,40,31,32,29,25,85,66,46,30.34,30.23,30.12,10,10,8,17,11,25,0.00,0,,175
2012-11-30,58,49,39,41,35,28,77,62,47,30.14,30.12,30.08,10,10,10,15,9,21,0.00,0,,190